This demonstration page uses our WeatherBlox Daily Observations layout. Learn more.

Left ArrowRight Arrow

39.08367, -84.50855

Hourly Observations for May 29, 2017

Temp ( °F °C ) Dew Point ( °F °C ) Humidity (%) Winds ( mph kmh ) Pressure ( in mb ) Visibility ( mi km ) Precip ( " mm )
12:02 am 00:02 Cloudy with Light Rain 66 18.9 65 18.3 96 96 SSW 6 9 29.85 1011 10 16 N/A
12:53 am 00:53 Mostly Clear 64 17.8 63 17.2 96 96 S 7 11 29.83 1010 10 16 N/A
1:53 am 01:53 Mostly Cloudy 63 17.2 62 16.7 97 97 S 8 13 29.85 1011 10 16 N/A
2:53 am 02:53 Clear with Mist and Fog 61 16.1 61 16.1 100 100 N N/A 29.87 1011 6 10 N/A
2:59 am 02:59 Mostly Clear with Mist and Fog 60 15.6 60 15.6 100 100 N N/A 29.88 1012 1 2 N/A
3:02 am 03:02 Mostly Cloudy with Mist and Fog 60 15.6 60 15.6 100 100 N N/A 29.88 1012 1 1 N/A
3:09 am 03:09 Clear with Mist and Fog 60 15.6 60 15.6 100 100 SSW 3 6 29.88 1012 1 2 N/A
3:25 am 03:25 Mostly Cloudy with Mist and Fog 58 14.4 58 14.4 100 100 N N/A 29.85 1011 1 1 N/A
3:36 am 03:36 Mostly Cloudy with Fog 59 15 59 15 100 100 N N/A 29.85 1011 0 0 N/A
3:46 am 03:46 Mostly Cloudy with Mist and Fog 58 14.4 58 14.4 100 100 SSW 6 9 29.85 1011 1 2 N/A
3:49 am 03:49 Mostly Clear with Mist and Fog 57 14 57 14 100 100 SSW 6 9 29.85 1011 2 3 N/A
3:53 am 03:53 Mostly Clear with Mist and Fog 58 14.4 58 14.4 100 100 SSW 6 9 29.85 1011 2 3 N/A
4:01 am 04:01 Mostly Clear with Mist and Fog 57 13.9 57 13.9 100 100 SSW 6 9 29.85 1011 2 2 N/A
4:53 am 04:53 Clear with Mist and Fog 57 13.9 57 13.9 100 100 SW 6 9 29.87 1011 1 2 N/A
5:03 am 05:03 Clear with Mist and Fog 57 13.9 57 13.9 100 100 SW 5 7 29.88 1012 3 5 N/A
5:35 am 05:35 Clear with Mist and Fog 57 13.9 57 13.9 100 100 N N/A 29.88 1012 2 3 N/A
5:43 am 05:43 Clear with Mist and Fog 59 15 59 15 100 100 N N/A 29.88 1012 1 2 N/A
5:53 am 05:53 Mostly Clear with Mist and Fog 60 15.6 60 15.6 100 100 S 3 6 29.88 1012 3 4 N/A
5:59 am 05:59 Mostly Cloudy with Mist and Fog 59 15 59 15 100 100 N N/A 29.91 1013 1 2 N/A
6:07 am 06:07 Partly Cloudy with Mist and Fog 60 15.6 60 15.6 100 100 N N/A 29.91 1013 2 3 N/A
6:09 am 06:09 Mostly Cloudy with Mist and Fog 60 15.6 60 15.6 100 100 N N/A 29.91 1013 3 5 N/A
6:53 am 06:53 Sunny with Patchy Fog 59 15 59 15 100 100 N N/A 29.92 1013 4 6 N/A
7:53 am 07:53 Sunny with Mist and Fog 63 17.2 63 17.2 100 100 N N/A 29.93 1014 5 8 N/A
8:53 am 08:53 Sunny 67 19.4 65 18.3 93 93 S 5 7 29.93 1013 7 11 N/A
9:53 am 09:53 Sunny 71 21.7 65 18.3 81 81 S 5 7 29.92 1013 10 16 N/A
10:53 am 10:53 Sunny 74 23.3 65 18.3 74 74 SSW 7 11 29.92 1013 10 16 N/A
11:53 am 11:53 Sunny 76 24.4 64 17.8 67 67 WSW 6 9 29.93 1014 10 16 N/A
12:53 pm 12:53 Mostly Sunny 78 25.6 61 16.1 56 56 SW 10 17 29.93 1014 10 16 N/A
1:53 pm 13:53 Mostly Cloudy 80 26.7 61 16.1 52 52 SSW 16 26 29.93 1014 10 16 N/A
2:53 pm 14:53 Partly Cloudy 80 26.7 59 15 49 49 SW 13 20 29.93 1014 10 16 N/A
3:53 pm 15:53 Mostly Sunny 80 26.7 57 13.9 45 45 SSW 15 24 29.93 1013 10 16 N/A
4:53 pm 16:53 Partly Cloudy 77 25 56 13.3 48 48 SSW 14 22 29.91 1013 10 16 N/A
5:53 pm 17:53 Mostly Sunny 80 26.7 59 15 49 49 SW 10 17 29.90 1012 10 16 N/A
6:53 pm 18:53 Mostly Sunny 79 26.1 56 13.3 45 45 SSW 9 15 29.90 1012 10 16 N/A
7:53 pm 19:53 Sunny 76 24.4 55 12.8 48 48 SW 10 17 29.90 1013 10 16 N/A
8:53 pm 20:53 Sunny 68 20 59 15 73 73 SSW 6 9 29.91 1013 10 16 N/A
9:53 pm 21:53 Clear 66 18.9 59 15 78 78 N N/A 29.92 1013 10 16 N/A
10:53 pm 22:53 Clear 66 18.9 58 14.4 75 75 N N/A 29.93 1014 10 16 N/A
11:53 pm 23:53 Clear 63 17.2 58 14.4 84 84 N N/A 29.93 1014 10 16 N/A

Powered by AerisWeather